Date String (YYYY-MM-DD hh:mm:ss) UTC,Instrument flags,Ambient pressure (hPa),Sample flow (lpm),Bypass flow (lpm),Sample temperature (°C),Ambient temperature (°C),ASC tube jacket temperature (°C),LED temperature (°C),Box temperature (°C),Sample RH (%),Span deviation,Mass concentration (μg/m³),Mass concentration (μg/m³),Mass concentration (μg/m³)
DateTimeUTC,F1_M11,P_M11,Q1_M11,Q2_M11,T1_M11,T2_M11,T3_M11,T4_M11,T5_M11,U1_M11,ZSPAN_M11,X0_M11,X2_M11,X1_M11
2022-09-13 19:00:00,,0825.2,5.00,0.00,29.8,27.9,00.0,38.5,31.6,15.0,0001.9,0022.91,0015.82,0014.88
2022-09-13 19:01:00,,0825.2,4.99,0.00,29.9,28.2,00.0,38.5,31.7,14.6,0001.8,0023.57,0015.89,0014.95
2022-09-13 19:02:00,,0825.2,5.01,0.00,29.9,28.3,00.0,38.6,31.7,14.6,0001.9,0023.68,0015.94,0014.97
2022-09-13 19:03:00,,0825.1,5.00,0.00,29.9,28.5,00.0,38.6,31.7,14.2,0002.2,0023.44,0015.85,0014.96
2022-09-13 19:04:00,,0825.2,5.00,0.00,29.9,28.6,00.0,38.6,31.8,14.4,0001.8,0023.81,0015.75,0014.89
2022-09-13 19:05:00,,0825.2,5.00,0.00,30.0,28.8,00.0,38.6,31.9,14.5,0002.0,0023.87,0015.73,0014.85
2022-09-13 19:06:00,,0825.1,5.00,0.00,30.0,28.9,00.0,38.6,31.9,14.9,0002.0,0024.12,0015.82,0014.91
2022-09-13 19:07:00,,0825.1,4.99,0.00,30.0,28.2,00.0,38.6,31.9,14.7,0001.9,0024.07,0015.93,0015.05
2022-09-13 19:08:00,,0825.0,4.99,0.00,30.0,26.9,00.0,38.6,31.8,14.8,0002.2,0023.91,0015.96,0015.11
2022-09-13 19:09:00,,0825.0,4.99,0.00,30.0,26.7,00.0,38.5,31.7,14.7,0002.4,0024.18,0016.13,0015.20
2022-09-13 19:10:00,,0824.9,4.99,0.00,29.9,27.0,00.0,38.5,31.7,15.0,0002.6,0024.24,0016.26,0015.33
2022-09-13 19:11:00,,0824.9,5.01,0.00,29.9,27.3,00.0,38.5,31.6,15.1,0002.7,0023.78,0016.38,0015.43
2022-09-13 19:12:00,,0824.9,5.01,0.00,29.8,27.5,00.0,38.5,31.5,15.2,0003.1,0023.55,0016.51,0015.56
2022-09-13 19:13:00,,0824.9,4.99,0.00,29.8,27.8,00.0,38.5,31.6,14.7,0003.1,0024.09,0016.62,0015.67
2022-09-13 19:14:00,,0824.9,5.00,0.00,29.8,28.1,00.0,38.5,31.7,14.6,0002.6,0025.79,0016.85,0015.84
2022-09-13 19:15:00,,0824.9,5.01,0.00,29.9,28.3,00.0,38.5,31.7,15.4,0002.4,0026.21,0017.12,0016.11
2022-09-13 19:16:00,,0824.9,5.00,0.00,29.9,28.5,00.0,38.5,31.7,14.6,0002.2,0026.72,0017.28,0016.28
2022-09-13 19:17:00,,0824.9,5.00,0.00,29.9,28.6,00.0,38.5,31.8,14.6,0002.2,0027.94,0017.28,0016.30
2022-09-13 19:18:00,,0824.9,5.00,0.00,30.0,28.7,00.0,38.6,31.8,14.7,0002.2,0028.49,0017.29,0016.30
2022-09-13 19:19:00,,0824.9,5.00,0.00,30.0,27.7,00.0,38.6,31.8,14.5,0002.1,0028.80,0017.27,0016.30
2022-09-13 19:20:00,,0824.9,5.00,0.00,29.9,26.6,00.0,38.5,31.7,15.0,0002.2,0028.37,0017.18,0016.26
2022-09-13 19:21:00,,0824.9,4.99,0.00,29.9,26.6,00.0,38.5,31.6,14.7,0001.9,0028.41,0017.12,0016.20
2022-09-13 19:22:00,,0824.9,4.99,0.00,29.8,26.9,00.0,38.5,31.5,14.8,0002.0,0028.69,0017.06,0016.14
2022-09-13 19:23:00,,0824.9,5.00,0.00,29.7,27.2,00.0,38.5,31.4,14.7,0001.7,0029.51,0016.96,0016.03
2022-09-13 19:24:00,,0824.9,5.01,0.00,29.7,27.5,00.0,38.4,31.4,15.1,0001.9,0029.39,0016.86,0015.92
2022-09-13 19:25:00,,0824.9,4.99,0.00,29.7,27.8,00.0,38.4,31.5,14.7,0002.1,0027.82,0016.68,0015.78
2022-09-13 19:26:00,,0824.9,5.01,0.00,29.7,28.0,00.0,38.4,31.5,14.5,0002.1,0027.05,0016.47,0015.58
2022-09-13 19:27:00,,0824.9,5.00,0.00,29.8,28.2,00.0,38.4,31.6,14.8,0002.1,0026.58,0016.34,0015.43
2022-09-13 19:28:00,,0824.9,5.00,0.00,29.8,28.4,00.0,38.4,31.7,14.6,0002.0,0025.52,0016.37,0015.42
2022-09-13 19:29:00,,0824.9,5.01,0.00,29.8,28.5,00.0,38.5,31.7,14.5,0001.8,0024.94,0016.32,0015.37
2022-09-13 19:30:00,,0824.9,5.00,0.00,29.9,28.7,00.0,38.5,31.8,14.6,0001.8,0024.42,0016.31,0015.32
2022-09-13 19:31:00,,0824.8,5.00,0.00,29.9,28.6,00.0,38.5,31.9,14.6,0001.3,0025.16,0016.31,0015.30
2022-09-13 19:32:00,,0824.8,5.01,0.00,29.9,27.5,00.0,38.5,31.8,14.8,0001.4,0025.62,0016.32,0015.29
2022-09-13 19:33:00,,0824.8,5.00,0.00,29.9,26.6,00.0,38.5,31.7,14.8,0001.0,0026.13,0016.45,0015.41
2022-09-13 19:34:00,,0824.8,5.00,0.00,29.8,26.8,00.0,38.4,31.7,15.3,0000.8,0025.79,0016.58,0015.58
2022-09-13 19:35:00,,0824.8,5.01,0.00,29.8,27.0,00.0,38.4,31.5,14.8,0000.6,0025.61,0016.88,0015.90
2022-09-13 19:36:00,,0824.8,5.00,0.00,29.7,27.3,00.0,38.4,31.4,15.1,0000.8,0026.25,0017.28,0016.22
2022-09-13 19:37:00,,0824.7,4.99,0.00,29.7,27.6,00.0,38.4,31.5,15.4,0001.1,0026.77,0017.64,0016.52
2022-09-13 19:38:00,,0824.7,5.02,0.00,29.7,27.9,00.0,38.4,31.5,14.6,0001.5,0026.79,0017.78,0016.68
2022-09-13 19:39:00,,0824.7,4.99,0.00,29.8,28.1,00.0,38.4,31.6,15.0,0001.8,0026.99,0017.84,0016.75
2022-09-13 19:40:00,,0824.6,5.01,0.00,29.8,28.3,00.0,38.4,31.6,14.8,0002.2,0027.78,0017.94,0016.81
2022-09-13 19:41:00,,0824.7,5.00,0.00,29.8,28.5,00.0,38.4,31.7,14.8,0002.3,0028.21,0018.02,0016.89
2022-09-13 19:42:00,,0824.6,5.00,0.00,29.8,28.7,00.0,38.5,31.7,14.9,0002.7,0027.64,0018.13,0016.98
2022-09-13 19:43:00,,0824.6,5.02,0.00,29.9,28.3,00.0,38.5,31.8,14.9,0002.8,0027.47,0018.27,0017.08
2022-09-13 19:44:00,,0824.5,5.01,0.00,29.9,27.1,00.0,38.4,31.7,15.2,0002.7,0027.14,0018.35,0017.11
2022-09-13 19:45:00,,0824.6,4.99,0.00,29.8,26.5,00.0,38.4,31.6,14.8,0002.7,0027.13,0018.50,0017.17
2022-09-13 19:46:00,,0824.7,4.99,0.00,29.8,26.8,00.0,38.4,31.6,14.8,0002.7,0027.46,0018.48,0017.10
2022-09-13 19:47:00,,0824.8,5.01,0.00,29.7,27.0,00.0,38.4,31.4,15.2,0002.8,0027.37,0018.37,0017.03
2022-09-13 19:48:00,,0824.9,5.01,0.00,29.7,27.4,00.0,38.4,31.4,14.6,0002.8,0029.36,0018.28,0016.97
2022-09-13 19:49:00,,0824.7,4.99,0.00,29.7,27.7,00.0,38.3,31.4,14.6,0002.8,0030.08,0018.41,0017.08
2022-09-13 19:50:00,,0824.6,5.00,0.00,29.7,27.9,00.0,38.4,31.5,14.7,0002.7,0030.66,0018.59,0017.22
2022-09-13 19:51:00,,0824.5,5.00,0.00,29.7,28.1,00.0,38.4,31.5,14.5,0002.5,0030.93,0018.68,0017.35
2022-09-13 19:52:00,,0824.6,4.99,0.00,29.7,28.3,00.0,38.4,31.6,14.4,0002.5,0031.11,0018.79,0017.46
2022-09-13 19:53:00,,0824.7,4.99,0.00,29.8,28.5,00.0,38.4,31.7,14.1,0002.3,0031.94,0018.81,0017.46
2022-09-13 19:54:00,,0824.6,4.99,0.00,29.8,28.6,00.0,38.4,31.7,14.4,0002.2,0032.24,0018.84,0017.50
2022-09-13 19:55:00,,0824.5,5.00,0.00,29.9,28.6,00.0,38.4,31.8,14.4,0002.2,0033.03,0018.84,0017.54
2022-09-13 19:56:00,,0824.6,4.99,0.00,29.9,27.4,00.0,38.4,31.7,14.1,0002.4,0034.14,0018.76,0017.48
2022-09-13 19:57:00,,0824.4,5.00,0.00,29.8,26.4,00.0,38.4,31.6,13.8,0002.7,0035.13,0018.61,0017.39
2022-09-13 19:58:00,,0824.4,5.01,0.00,29.7,26.6,00.0,38.4,31.5,14.2,0002.7,0035.53,0018.55,0017.32
2022-09-13 19:59:00,,0824.4,5.02,0.00,29.7,26.8,00.0,38.3,31.3,14.2,0002.2,0034.14,0018.56,0017.30
